Hourly Weather Roundup
Issued by NWS Central Illinois

Home | Current Version | Previous Version | Text Only | Print | Product List | Glossary On
Versions: 1 2 3 4 5 6 7 8 9 10 11 12 13 14 15 16 17 18 19 20 21 22 23 24 25 26 27 28 29 30 31 32 33 34 35 36 37 38 39 40 41 42 43 44 45 46 47 48 49 50
000
NZUS43 KILX 290910
HWRILX

AREA WEATHER ROUNDUP
NATIONAL WEATHER SERVICE, LINCOLN IL
400 AM CDT FRI MAY 29 2015


CITY           SKY/WX    TMP DP  RH WIND       PRES   REMARKS
BLOOMINGTON    PTCLDY    66  64  93 S6        30.06F
CHAMPAIGN      MOCLDY    69  64  84 SE8       30.05F
DANVILLE       MOCLDY    67  64  90 CALM      30.05S
DECATUR        MOCLDY    67  64  90 S5        30.04F
EFFINGHAM      PTCLDY    67  63  86 CALM      30.06S
FLORA          CLEAR     65  64  93 CALM      30.05S
GALESBURG      CLOUDY    67  63  86 SE5       29.98F
JACKSONVILLE   CLOUDY    70  66  88 SE8       29.99F
LACON          CLOUDY    66  63  88 CALM      30.00F FOG
LAWRENCEVILLE  CLEAR     67  64  90 CALM      30.06F
LITCHFIELD     PTCLDY    66  63  89 SE6       30.01F
$$


CITY           SKY/WX    TMP DP  RH WIND       PRES   REMARKS
LINCOLN        PTCLDY    66  64  91 CALM      30.00F
MACOMB         CLOUDY    67  65  93 SE5       30.00F
MATTOON        NOT AVBL
MT CARMEL AP   CLEAR     70  64  83 CALM      30.05S
OLNEY-NOBLE AP CLEAR     66  64  94 CALM      30.05S
PARIS          CLEAR     67  64  90 SE3       30.08S
PEORIA         CLOUDY    71  64  78 S8        30.00F
PONTIAC        MOCLDY    70  65  84 S7        30.04F
RANTOUL        MOCLDY    69  65  87 SE5       30.06S
ROBINSON       PTCLDY    67  64  90 CALM      30.07S
SPRINGFIELD    PTCLDY    69  65  86 S3        30.01F
TAYLORVILLE    PTCLDY    64  63  94 CALM      30.03S
$$

...REGIONAL REPORTS...


CITY           SKY/WX    TMP DP  RH WIND       PRES   REMARKS
CHICAGO O`HARE CLOUDY    66  59  78 S3        30.03F
KANKAKEE       MOCLDY    69  64  83 SE5       30.06F
MOLINE         CLOUDY    67  61  81 E3        29.97F
MOUNT VERNON   CLEAR     63  59  88 CALM      30.04F
PITTSFIELD     MOCLDY    68  65  88 SE5       29.99S
QUINCY         MOCLDY    67  65  93 SE5       29.96F
ROCKFORD       CLOUDY    66  56  70 CALM      30.02F
$$


CITY           SKY/WX    TMP DP  RH WIND       PRES   REMARKS
BURLINGTON     CLOUDY    68  65  90 SE5       29.96F
CEDAR RAPIDS   CLOUDY    64  63  96 S8        29.95F
DES MOINES     PTCLDY    63  60  90 S5        29.93F
KIRKSVILLE       N/A     64  64 100 CALM      29.96F
OTTUMWA        CLOUDY    64  63  96 E7        29.94F
ST LOUIS       MOCLDY    73  64  73 S10       29.99F
$$


CITY           SKY/WX    TMP DP  RH WIND       PRES   REMARKS
TERRE HAUTE    CLEAR     66  63  90 CALM      30.08S
EVANSVILLE     CLEAR     67  64  90 CALM      30.05F
INDIANAPOLIS   CLEAR     68  62  81 SE6       30.08F
LAFAYETTE      PTCLDY    65  62  90 CALM      30.07F
MADISON        CLOUDY    68  55  63 CALM      30.01S
MILWAUKEE      CLOUDY    60  53  77 SE3       30.02F
$$




USA.gov is the U.S. government's official web portal to all federal, state and local government web resources and services.